Location: Bailen
(14.1842°N, 120.7958°E)
Time: 18:39:32
(UTC+00:00)

Resurs 01 Rocket - Pass Details

Date: 12 January 2026
Orbit: 628 x 635 km, 97.7° (Epoch: 17 February)

Event Time Altitude Azimuth Distance (km) Brightness Sun altitude
Rises 12:08:21 0° 200° (SSW) 2,906 5.4 -33.5°
Reaches altitude 10° 12:11:09 10° 219° (SW) 1,999 4.7 -34.1°
Maximum altitude 12:14:04 18° 261° (W) 1,558 4.2 -34.8°
Drops below altitude 10° 12:16:59 10° 304° (WNW) 1,998 4.5 -35.5°
Enters shadow 12:17:30 - 308° (NW) 2,145 4.7 -35.6°
